Flight Track Log - Related Links

Times and Time Zones

All times are in EDT time to prevent confusion due to time zone crossing. See the N488DM flight status page for this flight to view local times or setup timezone preferences in your user account.

Time Position Orientation Groundspeed Altitude Reporting Facility
EDT Latitude Longitude Course Direction KTS MPH feet Rate Location/Type
06:03PM 43.1647 -89.2364 103° East 148 170 4,400  Level Chicago Center
06:04PM 43.1581 -89.1831 100° East 147 169 5,800 1,220 Climbing Chicago Center
06:05PM 43.1503 -89.1269 101° East 147 169 6,900 1,073 Climbing Chicago Center
06:07PM 43.1167 -88.9843 90° East  Level FlightAware Approximate
06:07PM 43.1428 -89.0697 100° East 150 173 8,000  Level Chicago Center
06:08PM 43.1093 -88.9151 101° East  Level FlightAware Approximate
06:08PM 43.1358 -89.0111 99° East 154 177 9,200  Level Chicago Center
06:09PM 43.1289 -88.9517 99° East 158 182 10,400 1,122 Climbing Chicago Center
06:10PM 43.1219 -88.8914 99° East 159 183 11,500 1,122 Climbing Chicago Center
06:11PM 43.1172 -88.8181 95° East 164 189 12,700 1,122 Climbing Chicago Center
06:12PM 43.1161 -88.7547 91° East 166 191 13,800 1,024 Climbing Chicago Center
06:13PM 43.1156 -88.6889 91° East 171 197 14,800 1,073 Climbing Chicago Center
06:14PM 43.1106 -88.6239 96° East 172 198 16,000 1,082 Climbing Chicago Center
06:15PM 43.0936 -88.5592 110° East 177 204 17,000 488 Climbing Chicago Center
06:16PM 43.0797 -88.4797 103° East 205 236 17,000  Level Chicago Center
06:17PM 43.0661 -88.3900 102° East 237 273 17,000  Level Chicago Center
06:18PM 43.0567 -88.2825 97° East 245 282 17,000  Level Chicago Center
06:19PM 43.0519 -88.1919 94° East 241 277 17,000  Level Chicago Center
06:20PM 43.0469 -88.0992 94° East 244 281 17,000  Level Chicago Center
06:21PM 43.0422 -88.0064 94° East 245 282 17,000  Level Chicago Center
06:22PM 43.0375 -87.9131 94° East 247 284 17,000  Level Chicago Center
06:23PM 43.0319 -87.8192 95° East 247 284 17,000  Level Chicago Center
06:24PM 43.0275 -87.7258 94° East 246 283 17,000  Level Chicago Center
06:25PM 43.0225 -87.6167 94° East 246 283 17,000  Level Chicago Center
06:27PM 43.0172 -87.5063 94° East  Level FlightAware Approximate
06:28PM 43.0050 -87.3347 94° East 252 290 17,000  Level Chicago Center
06:29PM 42.9989 -87.2392 95° East 254 292 17,000  Level Chicago Center
06:30PM 42.9936 -87.1428 94° East 255 293 17,000  Level Chicago Center
06:31PM 42.9881 -87.0478 95° East 252 290 17,000 -244 Level Chicago Center
06:32PM 42.9811 -86.9283 95° East 263 303 16,500 -634 Descending Chicago Center
06:33PM 42.9742 -86.8272 95° East 268 308 15,700 -878 Descending Chicago Center
06:34PM 42.9667 -86.7222 96° East 278 320 14,700 -1,122 Descending Chicago Center
06:35PM 42.9592 -86.6181 96° East 277 319 13,400 -1,171 Descending Chicago Center
06:36PM 42.9522 -86.5150 95° East 277 319 12,300 -976 Descending Chicago Center
06:37PM 42.9453 -86.4172 96° East 263 303 11,400 -927 Descending Chicago Center
06:38PM 42.9383 -86.3233 96° East 254 292 10,400 -976 Descending Chicago Center
06:39PM 42.9322 -86.2333 95° East 243 280 9,400 -1,073 Descending Chicago Center
06:40PM 42.9247 -86.1283 96° East 234 269 8,200 -1,073 Descending Chicago Center
06:41PM 42.9181 -86.0447 96° East 227 261 7,200 -537 Descending Chicago Center
06:42PM 42.9122 -85.9686 96° East 211 243 7,100 -344 Descending Chicago Center
06:43PM 42.9061 -85.9008 97° East 186 214 6,500 -927 Descending Chicago Center
06:44PM 42.8908 -85.8217 105° East 209 241 5,200 -1,171 Descending Chicago Center
06:45PM 42.8761 -85.7433 104° East 216 249 4,100 -1,122 Descending Chicago Center
06:46PM 42.8606 -85.6569 104° East 205 236 2,900 -976 Descending Chicago Center
06:47PM 42.8506 -85.5903 102° East 193 222 2,100 -689 Descending Chicago Center
06:49PM 42.8481 -85.5319 93° East 172 198 1,500 -585 Descending Chicago Center
06:50PM 42.8708 -85.5117 33° Northeast 150 173 900 -581 Descending Chicago Center
06:52PM 42.8667 -85.5167 270° West  Level FlightAware Approximate

Login

Don't have an account? Register now (free) for customized features, flight alerts, and more!